Погода в Янгиюле

Узбекистан     41°24′01″N   69°22′03″E
темп.,
°C
ветер,
м/с
пор.,
м/с
влажн.,
%
обл.,
%
осадки,
мм/ч
давл.,
гПа
погр.,
м
3 марта, ср
ср323:00+7с356196 0.0 1025150
02:00+6ссв2364100 0.0 1024101
05:00+6св1277100 0.0 102554
08:00+7юв368095 0.0 1024320
11:00+10ю456183 0.1 1023834
14:00+12ююз344936 0.1 10211206
17:00+12юз334821 0.1 10211284
20:00+9з11610 0.0 102238
4 марта, чт
чт423:00+9вюв126236 0.0 102231
02:00+8вюв235876 0.1 102147
05:00+7в335944 0.1 102045
08:00+8вюв23570 0.0 102053
11:00+13ююв364050 0.0 1018397
14:00+16ююз6937100 0.0 10162007
17:00+12ю4858100 1.6 1016964
20:00+10юв51066100 0.0 1019352
5 марта, пт
пт523:00+7с4588100 9.1 1023309
02:00+5ссз3585100 0.4 1027574
05:00+3ссз468398 1.1 1030380
08:00+2с358412 0.0 1032249
11:00+7ссз22546 0.0 1031675
14:00+10с33350 0.0 10281071
17:00+10с44420 0.0 1025758
20:00+6ссв35610 0.0 1025133
6 марта, сб
сб623:00+5св46490 0.0 1023133
02:00+5всв354176 0.0 1019120
05:00+5св233888 0.0 101681
08:00+6всв2339100 0.0 101399
11:00+12ссв2429100 0.0 1011385
14:00+13ссз5635100 0.0 1012560
17:00+11с4547100 0.0 1012378
20:00+8ссв3557100 0.0 1014146
7 марта, вс
вс723:00+8ю0259100 0.1 101670
02:00+6юв3482100 1.8 1016335
05:00+6ююв3587100 4.1 1017322
08:00+6ю4688100 2.6 1019607
11:00+6ююв4586100 4.5 1019515
14:00+8ююв3375100 0.2 1018586
17:00+9ю2266100 0.3 1018616
20:00+7ссз227291 0.0 1018106